Change the Weather History Date:

Tuesday, April 29, 2014

  Actual Average Record
Temperature  
Mean Temperature 44 °F 54 °F  
Max Temperature 51 °F 67 °F 93 °F (1934)
Min Temperature 37 °F 41 °F 12 °F (1907)
Degree Days  
Heating Degree Days 21 11  
Month to date heating degree days 504 507  
Since 1 July heating degree days 7500 6987  
Cooling Degree Days 0 0  
Month to date cooling degree days 0 0  
Year to date cooling degree days 0 0  
Moisture  
Dew Point 37 °F    
Average Humidity 78    
Maximum Humidity 100    
Minimum Humidity 56    
Precipitation  
Precipitation 0.09 in 0.10 in 1.12 in (1963)
Month to date precipitation 0.52 2.08  
Year to date precipitation 2.06 3.70  
Snow  
Snow 0.00 in - 3.50 in (1950)
Month to date snowfall T  
Since 1 July snowfall 30.8  
Snow Depth 0.00 in    
Sea Level Pressure  
Sea Level Pressure 29.80 in    
Wind  
Wind Speed 18 mph (North)    
Max Wind Speed 28 mph    
Max Gust Speed 33 mph    
Visibility 8 miles    
Events Rain    
T = Trace of Precipitation, MM = Missing Value Source: NWS Daily Summary

Daily Weather History Graph

Daily Weather History Graph

Search for Another Location

Airport or City:

Trip Planner

Search our weather history database for the weather conditions in past years. The results will help you decide how hot, cold, wet, or windy it might be!

Date:

Astronomy

Apr. 29, 2014 Rise Set
Actual Time 6:27 AM CDT 8:32 PM CDT
Civil Twilight 5:55 AM CDT 9:04 PM CDT
Nautical Twilight 5:17 AM CDT 9:42 PM CDT
Astronomical Twilight 4:35 AM CDT 10:25 PM CDT
Moon 6:46 AM CDT 9:14 PM CDT
Length of Visible Light 15h 08m
Length of Day
14h 05m
New Moon, 0% of the Moon is Illuminated
Apr 29
New Moon
May 6
First Quarter
May 14
Full
May 21
Last Quarter
May 28
New

Hourly Weather History & Observations

Time (CDT) Temp. Windchill Dew Point Humidity Pressure Visibility Wind Dir Wind Speed Gust Speed Precip Events Conditions
12:53 AM 43.0 °F 34.8 °F 41.0 °F 93% 29.68 in 10.0 mi North 18.4 mph - 0.00 in   Overcast
1:53 AM 43.0 °F 35.7 °F 39.9 °F 89% 29.69 in 10.0 mi NNE 15.0 mph - N/A   Overcast
2:53 AM 42.1 °F 33.9 °F 41.0 °F 96% 29.70 in 4.0 mi North 17.3 mph - 0.01 in Rain Light Rain
3:41 AM 42.1 °F 33.6 °F 41.0 °F 96% 29.68 in 2.5 mi North 18.4 mph - 0.00 in Rain Light Rain
3:51 AM 42.8 °F 35.1 °F 41.0 °F 93% 29.68 in 3.0 mi North 16.1 mph - 0.00 in Rain Light Rain
3:53 AM 42.1 °F 34.2 °F 41.0 °F 96% 29.70 in 3.0 mi North 16.1 mph - 0.00 in Rain Light Rain
4:53 AM 39.9 °F 29.5 °F 39.0 °F 97% 29.72 in 7.0 mi North 24.2 mph 33.4 mph 0.01 in Rain Light Rain
4:59 AM 39.9 °F 30.2 °F 37.9 °F 93% 29.70 in 9.0 mi North 20.7 mph 33.4 mph 0.00 in Rain Light Rain
5:12 AM 39.9 °F 30.2 °F 37.9 °F 93% 29.70 in 10.0 mi North 20.7 mph - 0.00 in Rain Light Rain
5:41 AM 39.0 °F 28.8 °F 37.0 °F 93% 29.72 in 10.0 mi North 21.9 mph - 0.00 in Rain Light Rain
5:53 AM 39.0 °F 28.5 °F 37.0 °F 93% 29.74 in 6.0 mi North 23.0 mph 27.6 mph 0.01 in Rain Light Rain
6:23 AM 37.0 °F 26.2 °F 35.1 °F 93% 29.73 in 7.0 mi North 21.9 mph 27.6 mph 0.02 in Rain Light Rain
6:36 AM 37.0 °F 27.0 °F 35.1 °F 93% 29.73 in 8.0 mi North 18.4 mph - 0.03 in Rain Light Rain
6:53 AM 37.9 °F 28.5 °F 36.0 °F 93% 29.76 in 10.0 mi North 17.3 mph - 0.04 in Rain Light Rain
7:42 AM 37.9 °F 27.9 °F 37.0 °F 97% 29.75 in 5.0 mi North 19.6 mph - 0.00 in Rain Light Rain
7:49 AM 39.2 °F 30.5 °F 37.4 °F 93% 29.76 in 6.0 mi North 16.1 mph - 0.00 in   Overcast
7:53 AM 39.0 °F 29.3 °F 36.0 °F 89% 29.79 in 7.0 mi North 19.6 mph - 0.00 in   Overcast
8:39 AM 39.0 °F 30.3 °F 36.0 °F 89% 29.77 in 10.0 mi North 16.1 mph - 0.00 in   Overcast
8:53 AM 39.0 °F 29.6 °F 36.0 °F 89% 29.80 in 9.0 mi North 18.4 mph - 0.00 in   Overcast
9:05 AM 39.0 °F 29.6 °F 36.0 °F 89% 29.78 in 7.0 mi North 18.4 mph - 0.00 in Rain Light Rain
9:41 AM 39.0 °F 29.9 °F 37.0 °F 93% 29.78 in 10.0 mi North 17.3 mph - 0.00 in   Overcast
9:53 AM 39.0 °F 30.3 °F 37.0 °F 93% 29.81 in 6.0 mi North 16.1 mph 27.6 mph 0.00 in Rain Light Rain
10:03 AM 39.0 °F 29.9 °F 37.0 °F 93% 29.79 in 7.0 mi North 17.3 mph - 0.00 in Rain Light Rain
10:21 AM 39.0 °F 29.6 °F 37.0 °F 93% 29.78 in 8.0 mi North 18.4 mph 27.6 mph 0.00 in Rain Light Rain
10:53 AM 39.9 °F 30.5 °F 37.0 °F 89% 29.82 in 6.0 mi North 19.6 mph 28.8 mph 0.00 in Rain Light Rain
11:53 AM 39.9 °F 29.5 °F 37.0 °F 89% 29.83 in 8.0 mi North 24.2 mph 31.1 mph 0.01 in Rain Light Rain
12:30 PM 41.0 °F 31.6 °F 37.0 °F 86% 29.81 in 10.0 mi North 20.7 mph 29.9 mph 0.01 in   Overcast
12:53 PM 42.1 °F 33.3 °F 37.0 °F 82% 29.83 in 10.0 mi North 19.6 mph 26.5 mph 0.01 in   Overcast
1:53 PM 43.0 °F 33.8 °F 36.0 °F 76% 29.84 in 10.0 mi North 23.0 mph 29.9 mph 0.00 in   Overcast
2:53 PM 46.0 °F 39.0 °F 37.9 °F 73% 29.85 in 10.0 mi North 17.3 mph - 0.00 in   Overcast
3:32 PM 48.9 °F - 39.0 °F 69% 29.82 in 10.0 mi North 19.6 mph - 0.00 in   Overcast
3:53 PM 48.9 °F - 37.9 °F 66% 29.84 in 10.0 mi North 20.7 mph - 0.00 in   Overcast
4:53 PM 50.0 °F - 36.0 °F 59% 29.86 in 10.0 mi NNE 21.9 mph 26.5 mph N/A   Overcast
5:53 PM 50.0 °F - 37.0 °F 61% 29.89 in 10.0 mi North 18.4 mph - N/A   Overcast
6:53 PM 48.9 °F - 37.0 °F 64% 29.92 in 10.0 mi North 16.1 mph - N/A   Overcast
7:53 PM 48.9 °F - 37.0 °F 64% 29.94 in 10.0 mi North 15.0 mph - 0.00 in   Overcast
8:53 PM 46.9 °F - 37.0 °F 68% 29.96 in 10.0 mi North 17.3 mph - N/A   Overcast
9:53 PM 46.0 °F 39.9 °F 37.0 °F 71% 29.98 in 10.0 mi North 13.8 mph - N/A   Overcast
10:53 PM 43.0 °F 37.7 °F 37.0 °F 80% 29.98 in 10.0 mi North 9.2 mph - N/A   Overcast
11:53 PM 44.1 °F 37.4 °F 36.0 °F 73% 29.97 in 10.0 mi NNW 13.8 mph - N/A   Overcast